TimeCDT,TemperatureF,Dew PointF,Humidity,Sea Level PressureIn,VisibilityMPH,Wind Direction,Wind SpeedMPH,Gust SpeedMPH,PrecipitationIn,Events,Conditions,WindDirDegrees,DateUTC
12:15 AM,69.8,68.0,94,30.03,2.5,Calm,Calm,-,N/A,,Mist,0,2012-10-06 05:15:00
12:35 AM,68.0,68.0,100,30.02,1.5,Calm,Calm,-,N/A,,Mist,0,2012-10-06 05:35:00
12:55 AM,68.0,68.0,100,30.02,0.8,Calm,Calm,-,N/A,,Mist,0,2012-10-06 05:55:00
1:15 AM,68.0,68.0,100,30.02,0.5,Calm,Calm,-,N/A,Fog,Fog,0,2012-10-06 06:15:00
1:55 AM,69.8,69.8,100,30.02,10.0,North,3.5,-,N/A,,Unknown,350,2012-10-06 06:55:00
2:15 AM,69.8,69.8,100,30.01,7.0,Calm,Calm,-,N/A,,Unknown,0,2012-10-06 07:15:00
2:35 AM,69.8,69.8,100,30.01,7.0,Calm,Calm,-,N/A,,Unknown,0,2012-10-06 07:35:00
2:55 AM,69.8,69.8,100,30.00,1.5,Calm,Calm,-,N/A,,Mist,0,2012-10-06 07:55:00
3:15 AM,69.8,68.0,94,29.99,0.8,Calm,Calm,-,N/A,,Mist,0,2012-10-06 08:15:00
3:35 AM,69.8,68.0,94,29.99,4.0,Calm,Calm,-,N/A,,Mist,0,2012-10-06 08:35:00
3:55 AM,69.8,68.0,94,29.99,2.0,Calm,Calm,-,N/A,,Mist,0,2012-10-06 08:55:00
4:15 AM,68.0,68.0,100,29.99,0.5,Calm,Calm,-,N/A,Fog,Fog,0,2012-10-06 09:15:00
4:35 AM,68.0,68.0,100,29.99,0.5,Calm,Calm,-,N/A,Fog,Fog,0,2012-10-06 09:35:00
4:55 AM,69.8,68.0,94,29.99,10.0,NNW,4.6,-,N/A,,Unknown,340,2012-10-06 09:55:00
5:15 AM,69.8,68.0,94,29.99,10.0,NNW,3.5,-,N/A,,Unknown,340,2012-10-06 10:15:00
5:35 AM,69.8,68.0,94,30.00,7.0,NNW,3.5,-,N/A,,Unknown,330,2012-10-06 10:35:00
5:55 AM,69.8,68.0,94,30.01,2.5,North,3.5,-,N/A,,Mist,350,2012-10-06 10:55:00
6:15 AM,69.8,68.0,94,30.01,0.5,NNW,3.5,-,N/A,Fog,Fog,340,2012-10-06 11:15:00
6:55 AM,69.8,68.0,94,30.01,0.2,North,3.5,-,N/A,Fog,Fog,350,2012-10-06 11:55:00
7:15 AM,69.8,68.0,94,30.01,0.5,Calm,Calm,-,N/A,Fog,Fog,0,2012-10-06 12:15:00
7:35 AM,69.8,69.8,100,30.01,4.0,Calm,Calm,-,N/A,,Mist,0,2012-10-06 12:35:00
7:55 AM,71.6,69.8,94,30.01,7.0,NNW,4.6,-,N/A,,Unknown,340,2012-10-06 12:55:00
8:15 AM,71.6,69.8,94,30.01,10.0,NNW,3.5,-,N/A,,Unknown,340,2012-10-06 13:15:00
8:35 AM,73.4,68.0,83,30.02,10.0,North,5.8,-,N/A,,Unknown,350,2012-10-06 13:35:00
8:55 AM,75.2,68.0,78,30.02,10.0,NNW,4.6,-,N/A,,Unknown,340,2012-10-06 13:55:00
9:15 AM,77.0,68.0,74,30.02,10.0,Calm,Calm,-,N/A,,Unknown,0,2012-10-06 14:15:00
9:35 AM,78.8,68.0,69,30.02,10.0,NNW,3.5,-,N/A,,Unknown,340,2012-10-06 14:35:00
9:55 AM,78.8,68.0,69,30.02,10.0,NNW,5.8,-,N/A,,Unknown,330,2012-10-06 14:55:00
10:15 AM,80.6,64.4,58,30.02,10.0,North,6.9,-,N/A,,Unknown,360,2012-10-06 15:15:00
10:35 AM,80.6,64.4,58,30.02,10.0,North,8.1,-,N/A,,Unknown,350,2012-10-06 15:35:00
10:55 AM,82.4,62.6,51,30.02,10.0,North,5.8,-,N/A,,Unknown,360,2012-10-06 15:55:00
11:15 AM,82.4,62.6,51,30.02,10.0,North,6.9,-,N/A,,Unknown,10,2012-10-06 16:15:00
11:35 AM,84.2,62.6,48,30.01,10.0,NNE,4.6,-,N/A,,Unknown,30,2012-10-06 16:35:00
11:55 AM,82.4,62.6,51,30.01,10.0,NNW,4.6,-,N/A,,Unknown,340,2012-10-06 16:55:00
12:15 PM,84.2,60.8,45,30.00,10.0,North,4.6,-,N/A,,Unknown,350,2012-10-06 17:15:00
12:35 PM,84.2,60.8,45,29.99,10.0,NNW,5.8,-,N/A,,Unknown,340,2012-10-06 17:35:00
12:55 PM,84.2,59.0,42,29.98,10.0,NE,4.6,-,N/A,,Unknown,40,2012-10-06 17:55:00
1:15 PM,86.0,60.8,43,29.97,10.0,North,3.5,-,N/A,,Unknown,360,2012-10-06 18:15:00
1:35 PM,86.0,57.2,37,29.96,10.0,Calm,Calm,-,N/A,,Unknown,0,2012-10-06 18:35:00
1:55 PM,82.4,64.4,54,29.95,10.0,SSE,9.2,-,N/A,,Unknown,160,2012-10-06 18:55:00
2:15 PM,82.4,64.4,54,29.94,10.0,South,8.1,-,N/A,,Unknown,190,2012-10-06 19:15:00
2:35 PM,82.4,66.2,58,29.94,10.0,South,6.9,-,N/A,,Unknown,170,2012-10-06 19:35:00
2:55 PM,82.4,66.2,58,29.93,10.0,South,8.1,-,N/A,,Unknown,180,2012-10-06 19:55:00
3:15 PM,82.4,66.2,58,29.93,10.0,SSW,8.1,-,N/A,,Unknown,200,2012-10-06 20:15:00
3:35 PM,82.4,64.4,54,29.93,10.0,SSW,8.1,-,N/A,,Unknown,200,2012-10-06 20:35:00
3:55 PM,82.4,66.2,58,29.92,10.0,South,8.1,-,N/A,,Unknown,180,2012-10-06 20:55:00
4:15 PM,82.4,64.4,54,29.93,10.0,SSW,6.9,-,N/A,,Unknown,210,2012-10-06 21:15:00
4:35 PM,82.4,64.4,54,29.92,10.0,SW,5.8,-,N/A,,Unknown,220,2012-10-06 21:35:00
4:55 PM,82.4,62.6,51,29.92,10.0,SW,6.9,-,N/A,,Unknown,230,2012-10-06 21:55:00
5:15 PM,80.6,64.4,58,29.93,10.0,SSW,5.8,-,N/A,,Unknown,210,2012-10-06 22:15:00
5:35 PM,80.6,64.4,58,29.93,10.0,SSW,5.8,-,N/A,,Unknown,200,2012-10-06 22:35:00
6:15 PM,78.8,64.4,61,29.94,10.0,SW,5.8,-,N/A,,Unknown,220,2012-10-06 23:15:00
6:35 PM,77.0,64.4,65,29.94,10.0,Calm,Calm,-,N/A,,Unknown,0,2012-10-06 23:35:00
6:55 PM,77.0,64.4,65,29.95,10.0,Calm,Calm,-,N/A,,Unknown,0,2012-10-06 23:55:00
7:35 PM,75.2,62.6,65,29.96,10.0,West,3.5,-,N/A,,Unknown,260,2012-10-07 00:35:00
7:55 PM,73.4,64.4,73,29.97,10.0,West,3.5,-,N/A,,Unknown,270,2012-10-07 00:55:00
8:15 PM,73.4,64.4,73,29.97,10.0,Calm,Calm,-,N/A,,Unknown,0,2012-10-07 01:15:00
8:35 PM,71.6,64.4,78,29.97,10.0,West,3.5,-,N/A,,Unknown,280,2012-10-07 01:35:00
8:55 PM,71.6,64.4,78,29.98,10.0,Calm,Calm,-,N/A,,Unknown,0,2012-10-07 01:55:00
9:15 PM,71.6,64.4,78,29.99,10.0,Calm,Calm,-,N/A,,Unknown,0,2012-10-07 02:15:00
9:35 PM,69.8,64.4,83,29.99,10.0,NNW,3.5,-,N/A,,Unknown,340,2012-10-07 02:35:00
9:55 PM,71.6,68.0,88,29.99,10.0,North,3.5,-,N/A,,Unknown,360,2012-10-07 02:55:00
10:15 PM,73.4,66.2,78,29.99,10.0,North,3.5,-,N/A,,Unknown,360,2012-10-07 03:15:00
10:35 PM,73.4,64.4,73,29.99,10.0,North,3.5,-,N/A,,Unknown,360,2012-10-07 03:35:00
10:55 PM,71.6,64.4,78,30.00,10.0,North,3.5,-,N/A,,Unknown,10,2012-10-07 03:55:00
11:15 PM,71.6,64.4,78,29.99,10.0,Calm,Calm,-,N/A,,Unknown,0,2012-10-07 04:15:00
11:35 PM,71.6,64.4,78,30.00,10.0,NNE,3.5,-,N/A,,Unknown,20,2012-10-07 04:35:00
11:55 PM,69.8,64.4,83,30.00,10.0,North,4.6,-,N/A,,Unknown,360,2012-10-07 04:55:00